When you browse on this site, cookies collect data to enhance your experience and personalize the content and advertising you see.
Visit our Privacy Policy to learn more. By continuing to use the site, you agree to this use of cookies and data.
  • En España
  • Lista de países
  • Para 7 días
  • Temperatura del agua
  • Mapa Satelital
  • El tiempo en el mapa
  • Informadores
  • user-avatar
    Iniciar sesión

    Tiempo cada hora Sydney

    Hoy, 20 Julio, Sábado

    Tiempo Temperatura Precipitaciones Viento Presión Humedad
    00:00 +9°C° 0 mm 2 mps 766 mmHg 75%
    01:00 +9°C° 0 mm 2 mps 766 mmHg 77%
    02:00 +8°C° 0 mm 2 mps 766 mmHg 78%
    03:00 +8°C° 0 mm 2 mps 766 mmHg 80%
    04:00 +7°C° 0 mm 2 mps 766 mmHg 81%
    05:00 +7°C° 0 mm 2 mps 766 mmHg 81%
    06:00 +7°C° 0 mm 2 mps 766 mmHg 82%
    07:00 +7°C° 0 mm 2 mps 766 mmHg 82%
    08:00 +9°C° 0 mm 2 mps 766 mmHg 73%
    09:00 +12°C° 0 mm 2 mps 766 mmHg 63%
    10:00 +14°C° 0 mm 2 mps 766 mmHg 50%
    11:00 +16°C° 0 mm 2 mps 765 mmHg 44%
    12:00 +18°C° 0 mm 3 mps 765 mmHg 39%
    13:00 +20°C° 0 mm 3 mps 764 mmHg 33%
    14:00 +20°C° 0 mm 4 mps 764 mmHg 35%
    15:00 +20°C° 0 mm 4 mps 763 mmHg 36%
    16:00 +20°C° 0 mm 5 mps 763 mmHg 38%
    17:00 +17°C° 0 mm 5 mps 763 mmHg 44%
    18:00 +15°C° 0 mm 5 mps 764 mmHg 50%
    19:00 +13°C° 0 mm 5 mps 764 mmHg 57%
    20:00 +13°C° 0 mm 5 mps 764 mmHg 57%
    21:00 +12°C° 0 mm 5 mps 764 mmHg 58%
    22:00 +10°C° 0 mm 5 mps 764 mmHg 59%
    23:00 +10°C° 0 mm 4 mps 764 mmHg 61%

    Mañana, 21 Julio, Domingo

    Tiempo Temperatura Precipitaciones Viento Presión Humedad
    00:00 +10°C° 0 mm 4 mps 763 mmHg 63%
    01:00 +9°C° 0 mm 3 mps 763 mmHg 65%
    02:00 +8°C° 0 mm 4 mps 763 mmHg 67%
    03:00 +8°C° 0 mm 4 mps 763 mmHg 69%
    04:00 +7°C° 0 mm 4 mps 762 mmHg 71%
    05:00 +8°C° 0 mm 3 mps 762 mmHg 72%
    06:00 +8°C° 0 mm 3 mps 762 mmHg 72%
    07:00 +7°C° 0 mm 3 mps 762 mmHg 73%
    08:00 +10°C° 0 mm 3 mps 762 mmHg 63%
    09:00 +12°C° 0 mm 3 mps 762 mmHg 53%
    10:00 +16°C° 0 mm 3 mps 762 mmHg 43%
    11:00 +18°C° 0 mm 3 mps 761 mmHg 38%
    12:00 +20°C° 0 mm 2 mps 761 mmHg 33%
    13:00 +23°C° 0 mm 2 mps 760 mmHg 29%
    14:00 +23°C° 0 mm 2 mps 760 mmHg 29%
    15:00 +23°C° 0 mm 2 mps 760 mmHg 29%
    16:00 +23°C° 0 mm 2 mps 760 mmHg 29%
    17:00 +20°C° 0 mm 3 mps 760 mmHg 33%
    18:00 +18°C° 0 mm 4 mps 761 mmHg 38%
    19:00 +15°C° 0 mm 4 mps 761 mmHg 43%
    20:00 +14°C° 0 mm 4 mps 761 mmHg 46%
    21:00 +13°C° 0 mm 4 mps 761 mmHg 49%
    22:00 +13°C° 0 mm 4 mps 762 mmHg 53%
    23:00 +12°C° 0 mm 4 mps 762 mmHg 55%

    Pasado mañana, 22 Julio, Lunes

    Tiempo Temperatura Precipitaciones Viento Presión Humedad
    00:00 +12°C° 0 mm 3 mps 762 mmHg 58%
    01:00 +11°C° 0 mm 3 mps 762 mmHg 60%
    02:00 +11°C° 0 mm 3 mps 761 mmHg 61%
    03:00 +12°C° 0 mm 2 mps 761 mmHg 63%
    04:00 +12°C° 0 mm 2 mps 761 mmHg 64%
    05:00 +12°C° 0 mm 2 mps 762 mmHg 64%
    06:00 +12°C° 0 mm 2 mps 762 mmHg 64%
    07:00 +12°C° 0 mm 2 mps 763 mmHg 63%
    08:00 +13°C° 0 mm 2 mps 762 mmHg 59%
    09:00 +15°C° 0 mm 2 mps 762 mmHg 54%
    10:00 +16°C° 0 mm 3 mps 762 mmHg 49%
    11:00 +18°C° 0 mm 2 mps 762 mmHg 44%
    12:00 +20°C° 0 mm 2 mps 761 mmHg 38%
    13:00 +23°C° 0 mm 1 mps 760 mmHg 33%
    14:00 +23°C° 0 mm 2 mps 760 mmHg 34%
    15:00 +22°C° 0 mm 3 mps 760 mmHg 35%
    16:00 +21°C° 0 mm 3 mps 760 mmHg 36%
    17:00 +20°C° 0 mm 3 mps 760 mmHg 43%
    18:00 +18°C° 0 mm 4 mps 760 mmHg 51%
    19:00 +15°C° 0 mm 4 mps 761 mmHg 58%
    20:00 +15°C° 0 mm 4 mps 761 mmHg 59%
    21:00 +14°C° 0 mm 3 mps 761 mmHg 59%
    22:00 +13°C° 0 mm 3 mps 761 mmHg 59%
    23:00 +12°C° 0 mm 3 mps 761 mmHg 62%

    23 Julio, Martes

    Tiempo Temperatura Precipitaciones Viento Presión Humedad
    00:00 +12°C° 0 mm 3 mps 761 mmHg 65%
    01:00 +11°C° 0 mm 3 mps 760 mmHg 68%
    02:00 +11°C° 0 mm 3 mps 760 mmHg 71%
    03:00 +10°C° 0 mm 4 mps 760 mmHg 73%
    04:00 +10°C° 0 mm 4 mps 760 mmHg 76%
    05:00 +8°C° 0 mm 4 mps 761 mmHg 76%
    06:00 +9°C° 0 mm 3 mps 761 mmHg 76%
    07:00 +9°C° 0 mm 3 mps 762 mmHg 76%
    08:00 +11°C° 0 mm 3 mps 762 mmHg 65%
    09:00 +13°C° 0 mm 3 mps 762 mmHg 54%
    10:00 +16°C° 0 mm 3 mps 762 mmHg 43%
    11:00 +18°C° 0 mm 3 mps 761 mmHg 37%
    12:00 +20°C° 0 mm 3 mps 761 mmHg 31%
    13:00 +21°C° 0 mm 2 mps 760 mmHg 26%
    14:00 +21°C° 0 mm 3 mps 760 mmHg 26%
    15:00 +21°C° 0 mm 3 mps 760 mmHg 26%
    16:00 +21°C° 0 mm 4 mps 760 mmHg 27%
    17:00 +20°C° 0 mm 4 mps 760 mmHg 31%
    18:00 +17°C° 0 mm 5 mps 761 mmHg 36%
    19:00 +15°C° 0 mm 5 mps 761 mmHg 40%
    20:00 +14°C° 0 mm 5 mps 761 mmHg 42%
    21:00 +14°C° 0 mm 6 mps 761 mmHg 44%
    22:00 +13°C° 0 mm 6 mps 761 mmHg 47%
    23:00 +13°C° 0 mm 6 mps 761 mmHg 47%

    24 Julio, Miércoles

    Tiempo Temperatura Precipitaciones Viento Presión Humedad
    00:00 +13°C° 0 mm 6 mps 760 mmHg 48%
    01:00 +11°C° 0 mm 6 mps 760 mmHg 49%
    02:00 +11°C° 0 mm 6 mps 760 mmHg 51%
    03:00 +12°C° 0 mm 5 mps 759 mmHg 54%
    04:00 +10°C° 0 mm 5 mps 759 mmHg 56%
    05:00 +11°C° 0 mm 4 mps 759 mmHg 57%
    06:00 +11°C° 0 mm 4 mps 760 mmHg 58%
    07:00 +10°C° 0 mm 3 mps 760 mmHg 59%
    08:00 +12°C° 0 mm 4 mps 761 mmHg 53%
    09:00 +14°C° 0 mm 4 mps 761 mmHg 47%
    10:00 +16°C° 0 mm 5 mps 762 mmHg 42%
    11:00 +16°C° 0 mm 5 mps 761 mmHg 37%
    12:00 +17°C° 0 mm 6 mps 761 mmHg 32%
    13:00 +19°C° 0 mm 6 mps 761 mmHg 28%
    14:00 +19°C° 0 mm 6 mps 761 mmHg 27%
    15:00 +17°C° 0 mm 6 mps 761 mmHg 26%
    16:00 +17°C° 0 mm 6 mps 761 mmHg 25%
    17:00 +15°C° 0 mm 6 mps 762 mmHg 29%
    18:00 +13°C° 0 mm 6 mps 763 mmHg 34%
    19:00 +11°C° 0 mm 6 mps 764 mmHg 39%
    20:00 +10°C° 0 mm 6 mps 764 mmHg 43%
    21:00 +9°C° 0 mm 6 mps 765 mmHg 47%
    22:00 +8°C° 0 mm 5 mps 765 mmHg 51%
    23:00 +7°C° 0 mm 5 mps 765 mmHg 54%

    25 Julio, Jueves

    Tiempo Temperatura Precipitaciones Viento Presión Humedad
    00:00 +7°C° 0 mm 5 mps 766 mmHg 57%
    01:00 +6°C° 0 mm 4 mps 766 mmHg 60%
    02:00 +6°C° 0 mm 4 mps 766 mmHg 62%
    03:00 +5°C° 0 mm 4 mps 766 mmHg 65%
    04:00 +5°C° 0 mm 4 mps 766 mmHg 67%
    05:00 +4°C° 0 mm 3 mps 766 mmHg 68%
    06:00 +4°C° 0 mm 3 mps 767 mmHg 69%
    07:00 +4°C° 0 mm 3 mps 767 mmHg 70%
    08:00 +7°C° 0 mm 3 mps 767 mmHg 61%
    09:00 +9°C° 0 mm 3 mps 767 mmHg 53%
    10:00 +11°C° 0 mm 3 mps 767 mmHg 44%
    11:00 +14°C° 0 mm 2 mps 766 mmHg 41%
    12:00 +15°C° 0 mm 2 mps 766 mmHg 38%
    13:00 +18°C° 0 mm 1 mps 765 mmHg 35%
    14:00 +16°C° 0 mm 1 mps 765 mmHg 36%
    15:00 +16°C° 0 mm 2 mps 764 mmHg 37%
    16:00 +16°C° 0 mm 2 mps 764 mmHg 38%
    17:00 +14°C° 0 mm 1 mps 765 mmHg 47%
    18:00 +12°C° 0 mm 1 mps 765 mmHg 56%
    19:00 +10°C° 0 mm 1 mps 765 mmHg 64%
    20:00 +10°C° 0 mm 1 mps 766 mmHg 67%
    21:00 +9°C° 0 mm 1 mps 766 mmHg 69%
    22:00 +8°C° 0 mm 2 mps 766 mmHg 72%
    23:00 +7°C° 0 mm 2 mps 765 mmHg 72%
    Mostrar más